Tracking 23611 objects as of 17-Sep-2021
HD Live streaming from Space Station
objects crossing your sky now
Track INSPIRATION-4

DMSP 5D-2 F13 DEB

Track DMSP 5D-2 F13 DEB now!
10-day predictions


NORAD ID: 40610
Int'l Code: 1995-015FH
Perigee: 806.4 km
Apogee: 853.1 km
Inclination: 98.8 °
Period: 101.4 minutes
Semi major axis: 7200 km
RCS: Unknown
Launch date: March 24, 1995
Source: United States (US)
Launch site: AIR FORCE WESTERN TEST RANGE (AFWTR)

Note: This is SATELLITE DEBRIS
aabbcc
Your satellite tracking list
Your tracking list is empty




NASA's NSSDC Master Catalog

Two Line Element Set (TLE):
1 40610U 95015HM  21259.29838670  .00000919  00000-0  44374-3 0  9997
2 40610  98.7811 268.8716 0032419  69.8781 290.5880 14.20799381331691
Source of the keplerian elements: AFSPC